sat.trackr.live / text

‹ back to catalog

STARLINK-31523

NORAD 59220 · 2024-046V

PAYLOAD ACTIVE UNKNOWN

§ Identity

Operator
Country
US
Launch date
2024-03-11
Launch site
AFWTR
Launch vehicle
Mass (kg)
RCS (m²)

Purposes: comms

External: N2YO · Heavens-Above · Gunter

§ Orbital elements

Epoch: 2026-09-20T09:45:36.657792Z

Period
93.85 min
Inclination
53.1602°
Eccentricity
0.0001220
Mean motion
15.34392342 rev/d
Perigee alt
461.9 km
Apogee alt
463.6 km
Semi-major
6,840.9 km
B*
3.2597e-5
RAAN
326.4961°
Arg perigee
84.2781°
Mean anomaly
275.8361°
Rev number
14,291

§ Raw data

STARLINK-315231 59220U 24046V   26263.40667428  .00000725  00000+0  32597-4 0  99932 59220  53.1602 326.4961 0001220  84.2781 275.8361 15.34392342142918

JSON: /api/v1/satellites/59220 · /tle

For live sub-satellite position, see the globe view (requires WebGL).

§ Visibility from observer

Set your observer location to see the next 7 days of passes ≥ 10°. The values pass through the URL so the page stays shareable.

No JS? Fill the form by hand. The geolocation button needs JavaScript.